When you browse on this site, cookies collect data to enhance your experience and personalize the content and advertising you see.
Visit our Privacy Policy to learn more. By continuing to use the site, you agree to this use of cookies and data.
  • In Österreich
  • Länderverzeichnis
  • Für 7 Tage
  • Wassertemperatur
  • Satellitenkarten
  • Wetterkarte
  • News
  • Widgets
  • user-avatar
    Anmelden

    Stündliche Wetter Hamburg

    Heute, 24 April, Mittwoch

    Zeit Temperatur Niederschläge Wind Luftdruck Luftfeuchtigkeit
    00:00 +13°C° 0 mm 5 m/S 751 mmHg 67%
    01:00 +12°C° 0 mm 4 m/S 751 mmHg 69%
    02:00 +12°C° 0.1 mm 4 m/S 751 mmHg 71%
    03:00 +12°C° 0.1 mm 5 m/S 751 mmHg 73%
    04:00 +10°C° 0.1 mm 5 m/S 751 mmHg 74%
    05:00 +10°C° 0.1 mm 5 m/S 751 mmHg 75%
    06:00 +10°C° 0.1 mm 5 m/S 751 mmHg 76%
    07:00 +12°C° 0 mm 5 m/S 751 mmHg 76%
    08:00 +13°C° 0 mm 5 m/S 751 mmHg 71%
    09:00 +15°C° 0 mm 5 m/S 751 mmHg 66%
    10:00 +16°C° 0 mm 5 m/S 752 mmHg 61%
    11:00 +19°C° 0 mm 5 m/S 752 mmHg 56%
    12:00 +21°C° 0 mm 5 m/S 752 mmHg 52%
    13:00 +23°C° 0 mm 5 m/S 752 mmHg 48%
    14:00 +23°C° 0 mm 5 m/S 752 mmHg 47%
    15:00 +25°C° 0 mm 5 m/S 752 mmHg 47%
    16:00 +25°C° 0 mm 5 m/S 752 mmHg 47%
    17:00 +23°C° 0 mm 4 m/S 752 mmHg 53%
    18:00 +21°C° 0 mm 4 m/S 751 mmHg 59%
    19:00 +20°C° 0 mm 4 m/S 751 mmHg 65%
    20:00 +19°C° 0 mm 4 m/S 751 mmHg 67%
    21:00 +18°C° 0 mm 4 m/S 752 mmHg 69%
    22:00 +18°C° 0 mm 4 m/S 752 mmHg 71%
    23:00 +17°C° 0.4 mm 4 m/S 752 mmHg 76%

    Morgen, 25 April, Donnerstag

    Zeit Temperatur Niederschläge Wind Luftdruck Luftfeuchtigkeit
    00:00 +15°C° 0.4 mm 4 m/S 752 mmHg 82%
    01:00 +14°C° 0.4 mm 4 m/S 753 mmHg 87%
    02:00 +13°C° 0.4 mm 4 m/S 753 mmHg 88%
    03:00 +12°C° 0.4 mm 3 m/S 754 mmHg 90%
    04:00 +12°C° 0.4 mm 3 m/S 754 mmHg 91%
    05:00 +13°C° 0 mm 2 m/S 754 mmHg 89%
    06:00 +13°C° 0 mm 2 m/S 755 mmHg 88%
    07:00 +13°C° 0 mm 2 m/S 755 mmHg 87%
    08:00 +14°C° 0 mm 3 m/S 756 mmHg 75%
    09:00 +17°C° 0 mm 3 m/S 756 mmHg 64%
    10:00 +19°C° 0 mm 3 m/S 757 mmHg 52%
    11:00 +20°C° 0 mm 3 m/S 757 mmHg 47%
    12:00 +22°C° 0 mm 3 m/S 757 mmHg 42%
    13:00 +24°C° 0 mm 3 m/S 757 mmHg 38%
    14:00 +24°C° 0 mm 3 m/S 757 mmHg 37%
    15:00 +24°C° 0 mm 3 m/S 756 mmHg 37%
    16:00 +25°C° 0 mm 2 m/S 756 mmHg 37%
    17:00 +23°C° 0 mm 2 m/S 756 mmHg 44%
    18:00 +21°C° 0 mm 2 m/S 756 mmHg 51%
    19:00 +19°C° 0 mm 2 m/S 757 mmHg 57%
    20:00 +18°C° 0 mm 2 m/S 757 mmHg 60%
    21:00 +17°C° 0 mm 3 m/S 756 mmHg 63%
    22:00 +16°C° 0 mm 3 m/S 756 mmHg 66%
    23:00 +16°C° 0 mm 3 m/S 756 mmHg 66%

    übermorgen, 26 April, Freitag

    Zeit Temperatur Niederschläge Wind Luftdruck Luftfeuchtigkeit
    00:00 +14°C° 0 mm 4 m/S 756 mmHg 67%
    01:00 +14°C° 0 mm 4 m/S 756 mmHg 67%
    02:00 +14°C° 0 mm 3 m/S 756 mmHg 71%
    03:00 +13°C° 0 mm 3 m/S 756 mmHg 75%
    04:00 +12°C° 0 mm 3 m/S 756 mmHg 79%
    05:00 +14°C° 0.1 mm 2 m/S 756 mmHg 80%
    06:00 +14°C° 0.1 mm 1 m/S 756 mmHg 80%
    07:00 +13°C° 0.1 mm 0 m/S 756 mmHg 80%
    08:00 +15°C° 0.8 mm 1 m/S 756 mmHg 82%
    09:00 +15°C° 0.8 mm 1 m/S 756 mmHg 84%
    10:00 +15°C° 0.8 mm 2 m/S 756 mmHg 86%
    11:00 +13°C° 1.3 mm 3 m/S 756 mmHg 88%
    12:00 +12°C° 1.3 mm 4 m/S 756 mmHg 90%
    13:00 +10°C° 1.3 mm 5 m/S 756 mmHg 92%
    14:00 +10°C° 0.2 mm 5 m/S 757 mmHg 91%
    15:00 +9°C° 0.2 mm 5 m/S 757 mmHg 89%
    16:00 +9°C° 0.2 mm 5 m/S 757 mmHg 88%
    17:00 +10°C° 0.3 mm 4 m/S 757 mmHg 89%
    18:00 +10°C° 0.3 mm 4 m/S 758 mmHg 90%
    19:00 +9°C° 0.3 mm 3 m/S 758 mmHg 92%
    20:00 +9°C° 0.2 mm 2 m/S 758 mmHg 92%
    21:00 +9°C° 0.2 mm 2 m/S 758 mmHg 93%
    22:00 +10°C° 0.2 mm 1 m/S 759 mmHg 94%
    23:00 +9°C° 0 mm 1 m/S 759 mmHg 95%

    27 April, Samstag

    Zeit Temperatur Niederschläge Wind Luftdruck Luftfeuchtigkeit
    00:00 +9°C° 0 mm 1 m/S 758 mmHg 95%
    01:00 +7°C° 0 mm 2 m/S 758 mmHg 96%
    02:00 +9°C° 0 mm 1 m/S 758 mmHg 95%
    03:00 +9°C° 0 mm 1 m/S 758 mmHg 95%
    04:00 +9°C° 0 mm 1 m/S 758 mmHg 95%
    05:00 +8°C° 0 mm 2 m/S 758 mmHg 94%
    06:00 +9°C° 0 mm 2 m/S 758 mmHg 92%
    07:00 +9°C° 0 mm 2 m/S 758 mmHg 91%
    08:00 +10°C° 0 mm 2 m/S 758 mmHg 86%
    09:00 +13°C° 0 mm 2 m/S 758 mmHg 82%
    10:00 +14°C° 0 mm 2 m/S 758 mmHg 77%
    11:00 +15°C° 0.1 mm 2 m/S 757 mmHg 71%
    12:00 +16°C° 0.1 mm 1 m/S 757 mmHg 64%
    13:00 +18°C° 0.1 mm 1 m/S 757 mmHg 58%
    14:00 +16°C° 0.5 mm 1 m/S 757 mmHg 63%
    15:00 +16°C° 0.5 mm 1 m/S 757 mmHg 67%
    16:00 +15°C° 0.5 mm 1 m/S 757 mmHg 72%
    17:00 +14°C° 1.1 mm 1 m/S 757 mmHg 79%
    18:00 +13°C° 1.1 mm 1 m/S 757 mmHg 85%
    19:00 +12°C° 1.1 mm 1 m/S 757 mmHg 92%
    20:00 +12°C° 0.1 mm 1 m/S 758 mmHg 93%
    21:00 +11°C° 0.1 mm 1 m/S 758 mmHg 94%
    22:00 +10°C° 0.1 mm 1 m/S 759 mmHg 95%
    23:00 +10°C° 0 mm 1 m/S 759 mmHg 96%

    28 April, Sonntag

    Zeit Temperatur Niederschläge Wind Luftdruck Luftfeuchtigkeit
    00:00 +9°C° 0 mm 1 m/S 759 mmHg 96%
    01:00 +9°C° 0 mm 1 m/S 759 mmHg 96%
    02:00 +9°C° 0 mm 1 m/S 760 mmHg 97%
    03:00 +9°C° 0 mm 1 m/S 760 mmHg 97%
    04:00 +8°C° 0 mm 1 m/S 760 mmHg 97%
    05:00 +9°C° 0 mm 1 m/S 760 mmHg 96%
    06:00 +10°C° 0 mm 1 m/S 761 mmHg 94%
    07:00 +11°C° 0 mm 1 m/S 761 mmHg 93%
    08:00 +12°C° 0 mm 1 m/S 761 mmHg 87%
    09:00 +13°C° 0 mm 1 m/S 762 mmHg 82%
    10:00 +15°C° 0 mm 1 m/S 762 mmHg 77%
    11:00 +15°C° 0.5 mm 2 m/S 762 mmHg 74%
    12:00 +16°C° 0.5 mm 2 m/S 762 mmHg 72%
    13:00 +16°C° 0.5 mm 2 m/S 762 mmHg 70%
    14:00 +17°C° 0.5 mm 3 m/S 763 mmHg 70%
    15:00 +17°C° 0.5 mm 3 m/S 763 mmHg 69%
    16:00 +17°C° 0.5 mm 3 m/S 763 mmHg 69%
    17:00 +14°C° 0.1 mm 3 m/S 763 mmHg 73%
    18:00 +14°C° 0.1 mm 2 m/S 763 mmHg 76%
    19:00 +13°C° 0.1 mm 2 m/S 764 mmHg 80%
    20:00 +12°C° 0 mm 2 m/S 764 mmHg 84%
    21:00 +9°C° 0 mm 2 m/S 765 mmHg 88%
    22:00 +8°C° 0 mm 2 m/S 765 mmHg 92%
    23:00 +8°C° 0 mm 2 m/S 765 mmHg 93%

    29 April, Montag

    Zeit Temperatur Niederschläge Wind Luftdruck Luftfeuchtigkeit
    00:00 +7°C° 0 mm 2 m/S 765 mmHg 95%
    01:00 +6°C° 0 mm 2 m/S 766 mmHg 97%
    02:00 +6°C° 0 mm 2 m/S 766 mmHg 97%
    03:00 +6°C° 0 mm 2 m/S 766 mmHg 97%
    04:00 +6°C° 0 mm 2 m/S 766 mmHg 98%
    05:00 +7°C° 0 mm 2 m/S 766 mmHg 95%
    06:00 +7°C° 0 mm 2 m/S 766 mmHg 92%
    07:00 +8°C° 0 mm 2 m/S 766 mmHg 89%
    08:00 +9°C° 0 mm 3 m/S 766 mmHg 85%
    09:00 +10°C° 0 mm 3 m/S 766 mmHg 80%
    10:00 +11°C° 0 mm 3 m/S 766 mmHg 76%
    11:00 +12°C° 0 mm 3 m/S 766 mmHg 76%
    12:00 +12°C° 0 mm 3 m/S 766 mmHg 75%
    13:00 +13°C° 0 mm 3 m/S 766 mmHg 75%
    14:00 +12°C° 0 mm 3 m/S 766 mmHg 77%
    15:00 +11°C° 0 mm 3 m/S 766 mmHg 79%
    16:00 +10°C° 0 mm 4 m/S 766 mmHg 82%
    17:00 +10°C° 0 mm 4 m/S 766 mmHg 83%
    18:00 +9°C° 0 mm 3 m/S 766 mmHg 84%
    19:00 +8°C° 0 mm 3 m/S 766 mmHg 85%
    20:00 +7°C° 0.1 mm 4 m/S 766 mmHg 86%
    21:00 +7°C° 0.1 mm 4 m/S 766 mmHg 87%
    22:00 +6°C° 0.1 mm 4 m/S 766 mmHg 88%
    23:00 +6°C° 0.1 mm 4 m/S 766 mmHg 88%
    Mehr zeigen